Startpagina
METAR-TAF:

METAR-TAF

Vliegvelden :

Kermanshah, Iran

breedte: 34-16N, lengte: 047-07E, hoogte: 1320 m

Actueel weer

Dit bericht is 1 uur en het 14 minuten geleden gemaakt, om 02:30 UTC
Wind 4 kt uit het zuidoosten
Temperatuur 8°C
Vochtigheid 81%
Druk 1021 hPa
Zicht 10 km of meer
Weinig wolken op 3000 ft, Cumulonimbus.
Verspreide wolken op 4000 ft
Gebroken wolken op 7000 ft

METAR: OICC 190230Z 13004KT 9999 FEW030CB SCT040 BKN070 08/05 Q1021 A3015

Tijdstip: 07:14 (03:44 UTC)


TAF: ontbreekt

Waarnemingen en weersverwachtingen van meer dan 4000 vliegvelden (METAR en TAF).

De beschikbare stations zijn de gele en rode punten op de kaart.

Ga met uw muis naar het station om de naam te zien.

Klik dan om waarnemingen en weersverwachtingen te zien.

kaart wijzigen: klik op de groene knoppen met een zwart kruis om in te zoomen, op de groene knop met een streepje om uit te zoomen of op de groene pijlen voor aangrenzende kaarten.


METAR-TAF: